Wind_Speed
11 11 11 11 11 10 9 9 8 9 11 12 11 9 7 8 5 2 2 1 2 2 3 3 3 2 3 4 3 3 3 2 3 3 3 3 5 6 6 7 7 8 8 9 10 11 12 12 13 14 14 15 15 15 15 15 15 15 14 14 13 13 13 12 12 12 13 15 16 17 18 18 19 20
10 10 10 10 11 12 11 10 9 8 7 10 11 8 8 10 7 5 4 3 1 1 1 1 1 0 0 1 2 2 1 1 2 2 2 3 4 6 6 7 8 8 9 9 9 10 10 11 12 13 14 14 15 16 16 17 17 17 17 17 16 16 15 15 15 14 13 13 13 14 15 16 16 16
11 11 12 12 13 12 11 10 10 9 8 7 6 5 8 12 9 6 6 4 4 3 3 4 4 4 4 3 2 2 2 2 2 2 4 5 7 8 9 10 10 10 10 10 10 10 10 11 11 12 13 14 14 15 16 16 17 18 18 19 19 19 18 17 17 17 16 16 16 16 16 16 15 16
12 11 11 11 11 10 10 9 8 7 6 5 4 4 7 10 7 5 6 6 7 6 5 5 6 7 7 6 5 4 5 6 6 7 8 9 10 10 10 11 11 12 12 11 12 12 12 12 12 12 12 13 14 15 15 16 16 17 18 19 19 20 20 20 19 19 18 18 18 19 19 19 19 19
10 10 9 8 8 7 6 5 5 4 3 3 3 4 7 9 8 9 9 8 8 8 7 7 7 8 9 9 8 7 8 10 11 11 12 13 12 11 10 10 11 12 13 13 13 14 14 14 14 14 14 14 14 15 15 16 16 17 18 18 19 20 20 21 21 21 21 21 21 21 21 21 22 22
8 7 6 5 4 3 2 1 1 2 3 5 5 6 7 8 9 10 10 10 9 8 7 8 8 8 10 12 12 10 11 13 15 16 15 15 15 13 12 11 12 13 15 15 16 17 17 16 16 16 15 15 15 15 15 16 16 17 18 18 19 20 20 21 22 22 22 23 23 23 23 23 23 24
4 4 3 2 1 2 3 3 3 4 6 8 8 7 6 6 7 8 9 11 11 11 11 11 11 9 9 13 15 14 13 14 14 15 15 17 19 17 16 16 16 17 17 16 17 18 19 19 19 18 18 17 17 16 16 16 16 17 18 19 20 20 21 21 22 22 23 23 24 24 25 25 25 25
3 3 4 4 4 5 5 6 6 6 9 10 9 9 10 9 8 8 9 11 11 12 13 13 14 13 12 15 17 17 17 16 15 15 17 21 23 23 24 24 24 24 24 22 20 19 19 20 20 20 20 20 21 20 19 19 19 18 19 20 20 21 22 22 22 23 23 24 25 25 26 26 27 27
7 7 7 7 7 8 8 8 8 7 9 11 10 10 12 12 10 9 10 11 11 12 13 13 14 15 14 15 15 16 20 21 19 20 22 25 26 26 27 28 28 29 29 27 24 22 20 21 21 21 21 21 22 22 22 22 22 22 22 22 22 22 22 23 24 25 25 25 26 26 27 27 28 28
11 11 12 11 11 11 11 11 11 9 9 10 11 10 11 14 13 8 8 11 12 12 12 13 14 15 15 15 14 16 20 23 23 23 25 27 27 26 26 27 28 30 31 30 29 27 25 24 24 24 24 24 24 24 24 24 24 24 25 26 25 25 24 24 24 25 26 27 28 28 28 29 29 30
14 14 14 14 13 14 14 14 14 13 11 11 12 11 11 14 15 11 9 10 12 12 12 14 15 16 17 19 19 20 21 23 25 26 27 27 28 27 27 27 28 30 31 32 32 32 31 30 29 28 28 27 27 26 26 25 25 25 26 27 28 28 27 26 26 26 27 28 29 29 30 30 31 31
18 16 16 16 17 17 17 16 15 14 14 13 14 13 13 14 14 13 11 11 11 12 12 15 16 17 19 20 22 25 25 26 28 29 29 29 29 29 28 28 29 31 31 31 31 32 33 34 33 32 31 30 29 29 28 26 25 26 26 27 29 29 29 28 28 28 28 29 29 30 31 32 32 33
21 19 19 19 20 20 19 19 18 17 16 16 17 17 15 14 13 13 12 12 13 13 13 15 17 18 19 21 23 26 28 29 29 29 29 30 30 30 30 28 29 31 33 33 31 31 32 35 35 34 33 33 33 32 31 29 27 27 27 28 29 30 30 30 29 29 30 30 30 31 31 32 33 34
25 24 23 22 22 23 23 23 22 21 20 19 19 19 16 14 14 14 13 14 15 15 15 16 18 19 20 21 23 25 27 28 28 28 29 30 31 32 32 32 31 31 34 35 33 31 31 34 35 34 34 34 35 35 35 34 31 30 29 30 30 30 30 31 31 31 31 31 31 32 32 33 34 35
28 28 27 26 25 26 27 27 26 25 23 22 20 20 18 16 16 15 15 15 16 16 16 17 19 20 21 22 23 24 26 27 27 28 30 31 33 34 35 35 34 33 34 37 36 33 31 34 36 34 32 33 35 36 36 37 36 34 33 32 32 32 32 32 33 33 33 33 32 33 33 34 34 35
33 33 32 32 31 31 30 29 28 27 26 22 20 19 18 17 16 16 16 17 17 18 18 19 20 21 21 22 23 23 25 27 28 30 32 33 35 36 37 38 37 36 37 40 41 39 35 35 37 35 33 32 33 35 35 36 37 36 35 34 33 33 33 34 35 35 35 35 34 34 34 35 35 35
39 38 37 38 38 36 33 32 32 31 26 21 18 17 17 16 17 17 17 18 19 19 20 20 21 21 20 21 21 22 24 27 29 32 33 34 36 37 38 39 40 39 40 42 44 43 39 37 37 36 34 33 32 33 34 35 36 36 36 36 35 34 34 34 35 35 35 35 35 35 35 35 36 36
42 41 41 42 42 40 36 34 33 28 22 19 19 18 18 18 18 18 18 18 20 20 21 21 22 21 20 21 22 22 24 27 29 32 33 34 36 38 39 41 41 41 41 42 44 45 42 40 38 37 36 34 33 33 33 33 34 35 35 35 34 34 33 34 34 34 34 34 35 35 35 35 35 35
43 43 45 45 44 42 38 35 32 25 19 19 20 20 19 19 18 18 19 19 20 21 21 22 22 21 20 22 24 24 26 28 30 32 34 36 38 40 41 42 42 43 43 43 44 46 44 41 39 38 36 35 34 33 32 32 32 33 33 32 32 32 32 33 33 34 34 34 35 35 35 35 35 35
44 45 46 46 46 43 39 35 31 24 20 20 22 21 20 20 19 20 20 20 21 21 21 21 21 20 21 22 24 26 28 29 31 34 36 38 40 42 43 44 44 44 43 43 44 45 44 41 39 38 36 35 35 33 31 30 30 31 31 31 31 32 33 34 34 35 36 36 36 36 36 36 36 36
45 47 46 46 46 42 38 32 27 22 20 22 23 22 21 21 20 20 20 21 21 21 20 20 20 21 22 23 25 27 29 31 34 36 39 40 41 43 44 44 44 44 42 42 42 43 41 40 39 38 36 35 33 32 31 30 31 32 32 32 33 33 34 35 36 37 37 37 38 38 38 38 38 38
43 44 44 45 42 37 33 28 23 21 22 23 23 22 22 22 21 20 21 21 20 20 20 21 22 22 23 25 27 29 31 34 37 39 41 41 41 42 43 43 43 42 40 39 40 39 38 38 37 37 37 35 32 32 32 32 33 33 34 35 36 36 37 38 38 39 39 39 39 39 39 39 39 39
41 42 43 43 39 33 30 25 22 22 24 24 23 23 22 22 20 19 20 21 20 21 21 22 23 24 25 27 29 31 33 35 38 39 40 41 40 41 41 41 42 41 39 38 38 38 37 36 35 36 38 37 34 33 34 35 35 35 36 37 38 38 38 39 39 39 39 40 40 40 40 41 41 40
41 40 40 41 36 33 32 27 23 24 25 24 23 23 22 23 22 20 20 21 22 22 22 23 25 26 27 29 31 33 35 37 39 40 41 42 42 42 42 42 42 41 38 37 37 38 37 37 36 37 39 40 39 37 37 37 36 35 36 36 36 35 34 35 35 36 37 37 38 38 39 39 39 38
40 39 40 41 36 32 33 30 26 24 25 23 23 22 21 22 22 22 22 23 24 24 24 25 27 28 30 32 33 35 37 39 41 42 43 44 44 43 43 43 42 40 38 37 37 38 39 39 39 39 40 41 42 41 39 36 33 32 33 32 31 30 29 30 30 31 32 34 35 36 36 37 36 35
40 41 42 40 34 30 30 29 25 23 23 22 21 20 20 20 21 22 23 24 25 25 26 27 29 30 31 33 34 35 37 39 40 41 43 44 43 42 41 41 41 40 38 37 38 39 40 40 40 41 42 42 42 41 39 33 27 26 26 26 26 26 27 27 28 28 29 30 32 33 34 35 34 34
42 42 38 33 32 31 28 25 22 21 20 20 19 18 18 19 20 22 25 26 26 26 28 29 31 31 31 32 33 35 36 37 38 39 40 40 38 37 37 36 37 38 38 39 39 40 41 42 41 41 41 40 39 36 33 28 23 21 22 23 24 25 26 26 27 28 28 29 29 30 30 31 31 32
39 39 31 24 24 24 22 20 20 20 19 19 19 18 18 20 21 23 25 26 27 27 29 30 31 32 33 34 34 35 35 35 36 37 39 38 36 35 35 35 36 37 38 40 40 41 41 41 40 38 36 34 32 28 25 22 20 21 23 23 23 24 25 26 27 27 28 29 29 29 29 28 28 28
34 32 25 19 16 16 17 17 18 18 19 20 19 19 20 21 22 24 25 26 27 28 29 31 32 33 34 34 34 34 34 34 35 36 36 36 36 36 36 36 37 38 39 39 39 40 39 38 36 33 30 27 24 23 22 21 21 22 25 26 26 25 25 26 28 28 29 29 28 28 28 27 26 26
33 29 22 15 13 16 19 19 19 20 21 21 20 20 21 22 23 25 26 27 28 29 30 32 33 34 34 33 33 33 33 33 33 34 34 34 35 36 36 37 38 38 38 38 38 38 36 34 30 27 23 21 20 21 22 23 23 24 26 28 28 27 26 27 28 29 30 30 28 26 25 26 25 24
31 27 20 15 16 19 20 21 21 21 21 21 21 21 21 23 25 26 27 29 30 30 31 32 32 32 31 30 30 31 31 31 31 32 32 33 34 35 37 38 39 39 38 37 36 34 31 28 25 22 21 20 21 22 23 24 25 26 27 28 28 28 27 28 28 28 30 31 28 25 23 23 23 22
29 25 20 19 21 23 24 25 25 25 25 24 24 24 24 26 27 28 29 30 30 30 29 29 29 27 27 27 28 28 29 29 30 30 31 33 34 36 38 39 40 40 38 35 31 28 25 23 21 20 21 22 22 23 23 24 25 27 27 27 27 28 27 28 29 29 30 31 28 24 21 20 20 20
31 25 22 23 25 26 27 28 28 28 28 28 28 27 28 29 29 29 29 29 28 27 27 26 25 24 24 25 26 26 27 27 29 30 31 33 35 36 37 38 39 39 37 33 27 23 21 20 20 20 21 22 23 24 25 24 24 26 27 27 28 28 27 28 29 29 30 31 28 24 21 19 19 18
29 26 26 27 28 28 28 28 27 27 27 27 26 27 28 29 28 26 26 25 25 25 24 23 22 22 22 23 23 24 25 26 27 29 31 33 34 35 36 37 36 35 34 30 25 22 20 20 20 21 21 22 22 22 23 25 25 26 27 28 28 29 28 28 29 29 30 30 29 25 21 17 15 14
28 27 29 30 29 28 27 26 25 24 23 24 25 25 25 25 24 22 21 22 22 21 21 20 20 20 20 21 22 23 24 25 26 28 30 32 33 35 35 35 33 32 30 26 23 22 21 21 22 22 22 22 19 17 18 23 26 27 27 28 28 29 29 28 28 28 28 29 27 23 17 12 10 9
29 29 30 31 29 27 25 25 24 24 23 25 26 26 24 23 20 18 18 19 19 19 19 19 19 19 19 19 20 21 23 24 26 27 29 31 33 33 33 32 31 29 27 24 22 22 21 22 23 23 23 23 20 15 16 21 24 26 27 28 28 28 28 28 27 27 27 26 23 18 12 7 6 6
32 32 31 30 28 26 26 25 24 25 26 27 26 24 22 21 19 17 17 18 18 17 17 17 17 17 18 18 19 20 21 23 25 26 28 30 31 30 29 28 28 27 24 22 21 21 22 22 23 24 24 23 21 17 17 19 22 25 28 29 28 27 28 28 26 25 24 22 18 13 8 5 5 7
33 34 32 30 28 27 27 26 24 25 25 23 21 20 20 19 18 18 18 18 17 16 15 15 16 16 16 16 17 18 20 22 23 25 26 27 28 27 27 27 26 24 22 20 20 21 22 22 22 24 23 21 20 20 19 20 21 24 27 29 28 27 27 26 24 22 20 17 13 10 8 7 8 11
33 33 32 30 29 28 27 25 23 22 20 19 19 19 18 18 19 19 19 17 15 15 15 14 15 15 15 15 16 18 19 20 22 23 24 25 26 26 25 25 24 23 21 19 18 19 20 20 20 20 19 18 19 20 22 22 23 24 26 28 28 26 24 22 20 18 16 14 11 9 10 11 11 12
33 34 34 31 30 30 29 26 23 20 19 19 20 19 18 19 20 20 18 16 14 14 14 14 13 13 13 14 15 17 18 19 20 22 23 24 25 25 25 24 24 22 20 18 17 17 17 17 17 16 16 17 18 20 22 23 24 26 26 25 24 22 20 19 18 16 15 12 10 9 10 10 10 10
35 35 33 31 31 30 28 24 21 20 20 20 19 19 19 19 19 18 16 14 13 14 13 12 12 11 12 13 14 15 17 18 19 20 22 23 24 25 24 24 24 23 21 18 16 16 16 15 14 14 15 16 18 19 21 22 22 24 24 22 20 19 17 16 16 16 14 12 11 9 8 7 7 8
33 31 30 31 31 27 23 20 19 20 20 19 18 19 20 19 18 16 15 14 13 13 11 10 10 10 11 12 13 15 16 17 19 20 21 23 24 24 24 24 24 23 21 18 16 15 14 14 13 13 14 16 17 18 20 21 21 21 21 19 17 16 15 14 15 15 14 12 10 8 6 6 7 9
28 28 29 30 26 20 17 19 20 20 19 18 18 19 20 19 17 15 14 13 12 11 9 8 9 9 11 12 13 14 16 17 19 20 21 22 23 23 23 23 23 22 21 19 16 14 14 14 14 14 14 16 17 18 19 20 18 17 17 17 17 16 15 15 15 15 14 12 9 8 7 7 8 10
27 27 28 26 21 17 18 20 20 18 16 16 17 19 19 17 15 14 14 13 12 9 7 7 7 9 11 12 13 14 16 17 19 20 20 21 22 23 23 23 23 22 21 20 17 14 14 14 14 14 14 15 17 18 18 18 16 14 15 16 17 17 16 16 15 14 13 11 9 8 9 10 10 11
24 25 25 22 19 18 20 20 18 15 15 16 18 19 17 16 15 15 14 13 10 7 5 5 7 9 10 11 12 14 15 17 18 19 21 22 22 22 23 23 23 22 21 20 18 15 12 12 13 14 14 15 15 16 16 15 13 11 13 15 15 15 16 15 14 13 12 11 10 10 10 10 12 13
Wind_Direction
179 175 173 170 164 160 161 166 170 167 168 165 146 121 131 149 152 227 245 121 92 68 74 86 67 59 48 28 22 26 31 46 40 21 10 7 5 4 359 356 353 350 347 345 343 341 339 338 337 335 333 331 329 328 327 326 325 323 320 317 315 313 311 309 308 305 293 279 269 263 262 263 264 267
168 160 154 149 144 139 138 139 134 133 145 153 146 145 169 171 170 195 196 178 191 326 331 357 45 44 356 349 345 13 33 60 62 36 9 357 344 338 336 335 338 341 340 337 334 333 332 332 331 329 329 328 326 325 324 322 322 320 319 317 315 311 308 304 302 302 301 295 287 279 273 269 268 269
147 143 139 137 134 131 130 129 127 127 132 146 144 134 162 173 180 201 217 246 263 265 286 306 316 308 303 300 296 305 306 304 305 308 316 318 317 320 323 326 330 334 333 330 328 328 326 324 322 321 321 321 320 320 319 318 317 315 314 313 312 310 307 304 301 298 295 291 287 284 280 275 272 270
141 139 136 135 131 128 129 128 128 130 127 137 135 114 156 182 206 237 247 265 271 269 276 289 302 308 305 303 296 289 287 288 291 299 306 308 313 319 321 323 325 324 326 327 326 324 322 320 317 314 313 311 311 311 311 312 311 310 309 307 306 306 304 303 302 299 296 292 288 285 281 278 275 273
142 139 136 133 130 131 138 138 140 147 145 161 176 175 186 200 222 247 258 265 265 268 275 283 294 299 299 299 298 296 298 299 300 304 308 308 309 310 311 317 321 321 322 324 324 321 319 318 314 312 310 306 304 302 301 302 302 302 302 302 301 300 299 299 298 297 296 294 291 288 285 282 279 276
150 147 143 138 133 141 165 185 200 212 237 250 244 229 220 218 229 250 271 278 272 273 283 290 293 296 302 303 299 298 298 300 307 313 316 318 316 315 319 320 323 329 329 325 324 323 322 320 317 313 310 307 303 300 298 295 293 293 293 294 295 294 294 294 293 293 292 291 290 288 286 285 282 280
171 167 165 160 187 246 267 269 275 266 256 262 266 263 260 255 255 264 277 282 285 292 297 298 295 295 303 302 299 300 296 295 306 315 322 328 325 322 326 323 320 326 328 325 325 325 323 321 319 316 314 311 308 304 301 297 293 290 288 286 285 286 286 287 287 287 287 286 286 285 284 283 282 282
237 221 218 232 239 249 259 263 266 263 262 268 270 271 277 274 260 254 258 267 279 290 296 301 301 303 311 311 309 312 311 309 312 313 322 333 334 330 331 329 325 326 326 326 326 325 321 318 317 315 314 313 311 309 307 304 299 295 290 286 282 280 279 280 280 280 281 281 282 282 281 281 280 280
262 259 254 255 255 259 265 267 267 261 263 272 273 273 278 275 259 243 248 259 269 279 286 293 297 302 310 315 314 313 315 318 319 317 322 332 335 334 332 331 328 327 325 323 321 319 317 316 313 312 311 309 308 307 307 306 304 301 296 291 286 283 279 277 276 275 276 275 276 277 277 278 278 278
262 264 265 265 267 273 277 278 279 273 265 268 271 272 274 277 277 264 254 263 269 272 277 283 291 298 303 307 306 305 310 315 316 318 322 326 327 328 327 326 324 322 320 319 317 316 315 314 312 310 309 308 306 305 304 303 302 300 297 294 291 288 284 280 278 275 274 273 273 273 273 273 275 275
264 263 268 272 273 275 277 278 279 278 272 267 268 271 269 272 280 280 268 270 275 276 282 289 296 303 307 308 308 306 308 312 312 316 321 321 321 322 323 322 320 318 317 317 317 317 316 314 313 311 310 308 306 304 303 301 300 297 294 292 291 290 287 284 281 278 275 273 271 271 270 270 270 270
269 271 277 281 281 280 278 276 276 276 275 269 266 270 268 265 270 272 269 270 275 283 293 297 299 302 305 307 308 309 311 313 314 317 320 320 319 319 320 320 319 316 314 314 316 317 316 314 312 312 310 309 307 304 303 301 300 297 293 290 289 289 288 286 283 281 277 274 271 270 269 268 267 266
274 275 278 280 282 284 281 277 276 274 274 273 272 272 268 261 260 263 266 268 273 282 289 291 293 296 301 305 305 307 311 314 317 318 318 317 317 317 317 319 319 317 316 315 315 317 316 312 311 311 310 309 308 305 304 303 301 297 294 291 289 288 287 287 285 282 279 276 273 270 268 267 266 266
272 272 274 276 280 283 281 279 276 273 274 276 273 268 261 255 254 256 261 268 274 283 288 290 292 294 299 303 301 302 309 313 315 315 314 314 316 317 318 319 319 318 317 315 315 318 316 311 309 309 309 308 306 305 305 304 303 301 297 294 291 289 288 288 286 284 281 278 275 273 270 267 265 264
272 273 274 274 279 284 284 281 276 274 278 278 269 260 254 250 253 257 263 269 276 283 287 289 292 295 299 301 298 301 307 310 312 313 314 316 317 318 318 318 320 320 318 315 315 318 317 312 309 309 308 306 304 303 304 304 304 303 300 296 294 292 291 290 288 286 283 281 278 276 273 271 268 265
275 275 274 274 280 287 288 285 278 275 280 277 264 255 250 248 253 260 267 272 277 283 287 289 291 295 299 300 298 302 307 309 311 314 316 318 318 318 318 318 320 321 319 316 315 317 317 313 310 310 309 305 302 300 300 301 301 300 299 296 294 293 292 291 289 287 286 283 281 278 275 273 271 268
275 275 275 276 281 288 291 289 282 276 274 267 254 249 249 250 256 263 269 275 280 285 289 291 293 296 298 298 298 302 307 310 312 315 317 317 317 317 317 317 318 319 317 315 314 314 313 311 309 310 309 305 301 299 298 297 297 297 296 296 295 294 292 290 289 287 286 284 282 280 277 274 272 270
274 276 276 277 281 287 291 292 286 276 264 253 247 247 250 252 258 264 270 277 283 287 291 292 295 299 301 302 304 307 309 311 314 316 317 317 317 316 315 315 315 316 315 314 313 312 311 310 309 309 308 305 302 299 298 297 296 295 295 295 295 294 292 290 288 287 285 284 282 281 280 278 275 273
271 273 275 276 280 283 286 285 280 268 251 243 244 245 248 253 259 266 272 279 284 288 292 294 297 301 303 305 307 310 311 314 316 317 316 316 316 315 314 314 314 315 315 315 314 312 312 312 310 308 307 305 303 301 300 299 297 295 295 294 293 291 289 288 286 285 284 283 282 282 281 281 280 278
267 268 271 274 276 280 283 278 267 253 239 237 241 245 249 255 262 268 275 281 285 288 291 294 299 303 304 307 309 312 314 316 316 315 315 316 316 315 315 315 314 315 315 315 313 311 311 310 308 306 305 304 303 303 302 300 297 295 294 292 290 288 287 286 285 284 283 282 282 281 280 280 280 280
267 267 269 270 272 277 278 267 249 237 231 232 238 245 250 256 262 269 276 281 285 290 294 298 302 305 307 310 311 312 314 315 314 315 316 316 316 314 313 312 312 313 313 312 310 309 308 307 306 305 304 304 304 305 303 300 297 295 294 293 292 290 288 287 285 285 284 283 282 281 280 278 277 277
266 267 268 269 271 274 270 252 231 225 228 231 237 244 250 257 264 272 279 285 291 297 300 302 304 306 308 309 310 312 313 314 315 315 315 315 313 311 310 309 310 310 310 309 308 306 304 305 305 305 304 303 304 304 301 299 297 297 296 296 295 293 291 289 288 288 287 286 284 283 281 278 275 273
265 264 266 269 268 267 258 240 222 223 230 234 241 246 252 260 267 276 284 291 297 299 300 301 304 305 307 308 310 312 312 312 312 312 312 312 310 309 309 308 309 309 309 308 306 304 303 304 304 305 305 304 303 302 300 300 300 300 298 297 296 295 294 292 291 290 289 288 287 285 282 280 277 275
264 263 266 267 263 256 248 231 215 221 231 236 244 251 258 266 273 281 289 295 299 299 301 303 304 304 305 306 308 308 308 308 311 312 313 313 312 312 311 311 310 310 310 310 308 306 305 306 306 306 306 304 304 303 302 302 303 301 298 296 295 294 293 293 292 291 291 290 289 288 286 285 283 282
265 266 266 264 257 247 239 226 212 218 231 238 246 255 264 274 283 291 297 299 300 301 303 303 302 302 303 305 307 308 309 311 313 314 313 313 313 313 312 311 310 311 311 311 309 308 307 307 307 307 305 304 304 304 304 305 303 300 298 297 296 295 295 294 294 293 293 293 292 292 292 291 291 289
268 263 257 254 245 230 222 217 213 219 231 240 249 259 270 281 289 295 298 299 299 301 302 301 301 302 305 307 309 310 310 312 313 312 312 312 312 312 311 311 310 310 310 309 308 307 307 307 307 307 306 305 306 305 305 305 303 300 298 298 299 300 302 301 300 299 297 295 294 294 293 293 293 292
267 257 248 243 234 219 208 205 210 220 232 243 253 263 273 282 289 293 296 297 299 300 300 300 301 303 304 306 307 308 309 310 310 310 309 309 309 309 308 307 307 307 308 308 308 309 309 309 309 308 307 306 305 305 304 304 303 302 300 300 303 305 307 307 306 305 302 299 296 293 292 292 291 289
260 250 239 225 216 212 210 210 216 226 237 248 258 266 274 281 287 291 294 296 298 298 298 298 300 302 303 305 306 306 307 308 308 306 306 306 307 306 304 304 306 308 309 309 310 311 310 309 308 307 306 305 304 303 302 302 303 303 301 302 305 307 309 309 309 309 308 305 301 298 295 292 290 288
256 246 234 218 204 207 218 227 231 236 244 251 258 266 273 279 286 291 294 295 296 296 297 298 300 302 303 304 304 305 307 307 306 305 305 307 308 307 307 308 309 310 310 310 311 310 308 307 306 304 304 304 303 302 302 303 305 306 305 307 309 310 311 311 312 313 311 308 305 301 297 294 292 290
248 242 244 242 225 215 222 233 239 242 247 253 259 266 274 281 287 291 293 292 293 294 297 298 300 300 301 303 305 307 308 307 305 306 307 308 309 309 309 309 309 309 310 311 311 310 307 305 304 303 303 302 302 303 303 305 307 308 309 309 310 311 311 311 312 314 314 312 310 305 300 297 294 292
238 241 249 244 225 221 227 233 237 240 244 250 258 267 278 285 289 290 290 289 290 293 296 298 298 299 301 304 307 307 306 305 305 306 307 307 308 309 309 309 309 310 311 312 311 308 304 303 303 303 302 302 303 303 304 307 309 309 309 310 310 311 311 311 313 315 316 317 315 310 305 302 297 293
238 240 237 226 222 225 230 233 237 243 249 255 263 271 277 283 287 288 288 288 290 293 295 296 297 300 303 306 306 305 304 305 305 305 306 307 309 311 311 310 310 310 311 312 309 304 300 299 299 300 302 304 305 306 306 308 309 309 309 310 309 310 312 313 315 317 318 318 317 312 307 303 300 297
241 235 228 230 235 239 243 248 252 257 261 267 272 276 278 282 284 284 284 286 289 292 294 297 302 306 307 306 304 304 304 305 306 307 310 312 312 312 310 310 310 311 312 312 308 301 298 298 297 299 303 306 308 309 309 309 310 310 311 311 311 312 315 317 317 318 319 318 316 311 306 304 301 300
232 230 234 240 244 249 255 261 264 267 270 273 274 278 281 284 284 283 284 287 291 294 299 304 307 308 306 304 304 305 305 306 308 311 313 313 312 310 310 310 311 311 312 311 306 301 299 298 297 299 303 306 310 313 312 312 314 314 315 316 317 319 320 319 317 318 318 317 315 312 311 308 303 300
222 230 238 242 247 254 259 262 265 267 268 269 273 279 281 280 279 282 287 291 295 298 302 305 305 303 304 305 305 305 306 308 311 313 313 312 311 311 311 312 313 314 313 309 304 301 300 299 298 299 301 305 310 314 314 315 318 319 319 319 321 321 320 318 317 317 316 315 313 313 316 316 310 305
228 235 239 243 248 252 254 255 258 260 264 270 276 279 275 269 268 277 288 293 296 299 300 301 301 303 306 306 305 306 308 311 313 314 314 315 315 315 315 316 317 316 314 308 303 299 298 299 299 299 301 304 308 313 319 323 325 324 322 321 323 321 318 317 316 316 314 313 312 314 320 325 315 305
226 230 233 238 242 243 246 250 256 263 271 276 277 274 269 266 270 281 291 295 295 296 296 298 301 304 305 304 306 310 313 315 317 318 318 318 318 318 319 320 320 318 314 308 302 299 298 299 300 300 302 306 310 316 327 334 334 328 323 323 324 322 318 316 315 314 311 310 309 312 319 320 305 299
224 225 227 231 234 237 243 251 261 269 272 271 266 263 264 271 280 289 293 293 292 293 295 299 302 301 301 304 310 314 316 318 320 322 322 322 322 323 324 324 323 320 315 310 305 302 301 301 301 301 304 309 315 321 330 338 338 332 325 324 324 323 319 317 317 315 311 306 305 308 313 313 310 308
224 222 224 228 231 236 243 252 263 268 264 257 255 257 263 274 283 289 291 290 291 294 297 299 298 297 301 310 316 319 320 323 325 327 327 328 328 329 328 327 326 322 317 313 309 307 305 303 302 303 308 314 321 326 331 336 338 335 330 327 326 326 324 322 322 321 316 309 306 308 309 309 310 310
224 223 226 229 232 240 249 256 261 260 255 253 253 255 262 272 280 284 286 286 289 292 293 292 293 299 310 319 322 323 326 328 331 332 333 333 333 332 331 331 330 326 321 317 314 311 308 306 306 310 315 318 322 327 332 335 336 334 331 330 329 329 328 329 330 330 326 320 317 315 311 307 305 304
222 224 227 231 240 250 256 256 254 251 249 250 251 255 263 271 276 279 279 280 283 285 285 289 297 309 319 323 325 328 331 334 336 338 338 338 337 336 335 335 333 329 324 318 315 312 309 307 309 314 316 316 319 325 329 331 331 330 330 333 333 331 331 335 337 336 334 330 327 325 319 308 302 302
219 222 228 238 247 253 252 245 241 242 242 244 251 259 266 270 272 272 273 275 277 279 283 294 306 316 323 327 330 333 336 339 342 344 343 342 340 339 338 337 335 332 327 320 314 311 309 308 308 310 311 310 314 321 325 326 327 328 330 334 335 334 335 341 342 338 335 331 326 322 314 304 303 304
222 226 233 240 242 238 233 231 231 233 238 246 255 262 265 266 266 266 267 269 270 273 282 298 310 321 328 331 334 337 340 344 347 347 346 345 343 342 341 340 338 336 332 325 316 309 307 307 306 306 307 307 309 315 322 323 324 327 331 335 337 339 343 347 345 338 334 332 326 317 313 312 309 306
223 223 227 231 227 218 219 225 226 228 240 253 258 260 261 261 261 260 260 261 260 263 278 302 320 329 332 333 336 340 344 348 348 346 347 349 348 346 344 344 343 341 337 332 324 312 306 305 305 304 305 306 308 314 320 321 324 331 337 339 340 341 344 346 344 339 336 336 331 324 322 319 314 312
226 224 223 219 212 211 219 226 230 238 249 255 256 258 261 261 258 256 254 254 254 258 281 318 328 329 331 333 337 342 346 347 345 346 350 352 350 348 348 349 348 345 342 338 332 322 313 308 307 307 308 311 313 317 321 322 325 335 339 338 340 344 345 343 341 339 340 340 334 326 322 318 316 318
Height
3148 3148 3149 3149 3150 3151 3152 3152 3152 3153 3153 3154 3155 3156 3157 3157 3158 3157 3157 3158 3158 3158 3158 3159 3159 3159 3159 3159 3158 3158 3158 3158 3158 3157 3157 3157 3157 3157 3156 3156 3155 3155 3154 3153 3153 3152 3151 3150 3150 3149 3148 3147 3147 3146 3146 3145 3144 3144 3143 3142 3142 3142 3141 3141 3140 3140 3140 3139 3139 3140 3141 3141 3142 3142
3148 3149 3149 3150 3150 3151 3152 3152 3153 3153 3154 3154 3154 3155 3155 3156 3156 3156 3156 3157 3158 3158 3158 3158 3159 3159 3159 3158 3158 3158 3157 3157 3157 3157 3157 3157 3156 3156 3156 3155 3155 3154 3153 3153 3152 3151 3150 3150 3149 3148 3147 3146 3145 3145 3144 3143 3143 3142 3142 3141 3140 3140 3140 3140 3139 3139 3139 3138 3138 3138 3138 3139 3139 3140
3149 3149 3150 3150 3151 3151 3152 3153 3153 3154 3154 3155 3154 3155 3155 3155 3156 3156 3156 3157 3157 3158 3158 3157 3157 3157 3157 3157 3157 3157 3156 3156 3156 3156 3156 3156 3155 3155 3155 3154 3154 3153 3152 3152 3151 3151 3150 3149 3148 3147 3146 3145 3144 3143 3143 3142 3141 3141 3140 3139 3139 3138 3138 3138 3137 3137 3137 3137 3137 3137 3137 3137 3137 3137
3149 3150 3150 3151 3151 3152 3153 3153 3154 3154 3155 3155 3155 3155 3155 3155 3156 3155 3156 3156 3157 3157 3157 3157 3157 3156 3156 3156 3156 3156 3155 3155 3155 3155 3154 3154 3154 3154 3153 3153 3153 3152 3152 3151 3150 3149 3149 3148 3147 3146 3145 3144 3143 3142 3141 3141 3140 3139 3138 3138 3137 3137 3136 3136 3135 3135 3135 3135 3135 3135 3135 3135 3135 3135
3149 3150 3151 3151 3152 3152 3153 3153 3154 3154 3154 3155 3155 3155 3155 3155 3155 3155 3155 3156 3156 3155 3155 3155 3155 3155 3155 3154 3155 3155 3154 3153 3153 3153 3153 3152 3152 3152 3153 3153 3152 3151 3150 3149 3148 3148 3147 3146 3146 3145 3144 3143 3142 3141 3140 3139 3138 3137 3137 3136 3135 3134 3134 3133 3133 3133 3133 3132 3132 3132 3132 3132 3132 3132
3150 3150 3151 3151 3151 3152 3152 3153 3154 3154 3154 3154 3153 3154 3154 3155 3155 3154 3154 3153 3154 3154 3154 3153 3153 3154 3153 3152 3152 3153 3152 3151 3151 3151 3151 3150 3149 3150 3150 3150 3150 3150 3149 3148 3146 3145 3145 3144 3144 3143 3142 3141 3140 3139 3138 3137 3136 3136 3135 3134 3133 3132 3132 3131 3131 3130 3130 3130 3130 3129 3129 3129 3129 3129
3150 3150 3151 3151 3151 3152 3152 3152 3153 3153 3153 3152 3152 3152 3153 3154 3154 3154 3153 3151 3151 3151 3151 3151 3151 3152 3153 3151 3150 3151 3151 3150 3150 3149 3149 3148 3147 3147 3147 3147 3147 3147 3147 3146 3145 3143 3142 3142 3141 3140 3139 3138 3138 3137 3136 3135 3134 3134 3132 3131 3131 3130 3129 3128 3128 3128 3127 3127 3126 3126 3126 3126 3126 3125
3150 3150 3150 3151 3151 3151 3151 3152 3152 3152 3152 3151 3152 3152 3152 3152 3153 3152 3151 3150 3150 3150 3149 3149 3149 3150 3150 3149 3148 3148 3148 3149 3149 3148 3147 3147 3145 3144 3144 3143 3143 3143 3143 3143 3142 3141 3140 3139 3138 3137 3136 3135 3134 3134 3133 3133 3132 3131 3130 3129 3128 3127 3126 3126 3125 3125 3124 3124 3123 3123 3123 3122 3122 3122
3149 3149 3150 3150 3150 3150 3151 3151 3151 3152 3151 3150 3151 3151 3150 3150 3151 3151 3150 3149 3150 3149 3148 3148 3147 3148 3148 3147 3147 3146 3146 3146 3146 3145 3145 3144 3143 3142 3141 3140 3139 3138 3138 3139 3139 3139 3138 3136 3135 3134 3134 3133 3131 3130 3130 3129 3128 3128 3127 3125 3125 3124 3123 3122 3122 3121 3121 3120 3120 3119 3119 3119 3118 3118
3147 3148 3148 3149 3149 3150 3150 3150 3150 3151 3151 3150 3150 3150 3149 3148 3148 3149 3149 3148 3148 3148 3147 3147 3146 3146 3146 3146 3146 3145 3144 3143 3143 3143 3143 3142 3142 3141 3140 3139 3137 3136 3135 3134 3134 3134 3134 3133 3132 3131 3130 3129 3128 3127 3127 3126 3125 3124 3123 3121 3121 3120 3119 3119 3118 3117 3117 3116 3116 3115 3115 3114 3114 3114
3146 3146 3146 3147 3148 3148 3148 3148 3149 3149 3149 3149 3148 3149 3148 3147 3146 3148 3148 3148 3147 3146 3146 3145 3145 3144 3144 3143 3143 3143 3143 3142 3140 3140 3141 3140 3139 3138 3137 3136 3135 3134 3132 3131 3130 3129 3128 3128 3127 3127 3126 3125 3124 3123 3123 3122 3122 3120 3119 3117 3116 3115 3115 3114 3114 3113 3113 3112 3111 3111 3110 3110 3110 3109
3144 3145 3146 3146 3146 3147 3147 3146 3147 3147 3147 3147 3147 3147 3147 3146 3146 3146 3146 3146 3146 3145 3144 3143 3143 3143 3142 3142 3140 3139 3139 3139 3138 3137 3137 3136 3135 3135 3134 3134 3132 3130 3129 3128 3127 3126 3124 3122 3122 3122 3121 3121 3120 3119 3118 3118 3118 3116 3115 3113 3112 3111 3110 3110 3109 3109 3108 3107 3107 3106 3106 3105 3105 3104
3142 3143 3144 3144 3144 3145 3145 3145 3145 3145 3145 3145 3145 3145 3145 3144 3144 3144 3144 3144 3144 3144 3143 3142 3141 3141 3140 3140 3138 3137 3136 3136 3135 3134 3134 3133 3132 3131 3131 3131 3130 3127 3125 3124 3124 3124 3122 3119 3117 3117 3116 3115 3114 3113 3113 3113 3113 3112 3110 3109 3108 3106 3106 3105 3104 3104 3103 3102 3101 3101 3100 3100 3099 3099
3140 3141 3142 3142 3142 3143 3143 3143 3142 3142 3142 3143 3142 3142 3142 3142 3142 3142 3142 3142 3142 3141 3141 3140 3139 3138 3138 3137 3136 3135 3134 3133 3133 3132 3131 3130 3129 3128 3126 3127 3126 3124 3121 3119 3120 3121 3119 3115 3113 3114 3113 3111 3109 3107 3106 3106 3107 3107 3106 3104 3103 3102 3101 3100 3099 3098 3097 3096 3096 3095 3095 3094 3094 3093
3138 3139 3139 3139 3140 3140 3140 3140 3140 3139 3139 3139 3139 3139 3139 3139 3139 3139 3139 3139 3139 3139 3139 3138 3137 3136 3135 3135 3134 3133 3132 3131 3130 3129 3128 3127 3125 3123 3122 3121 3121 3121 3118 3114 3114 3116 3116 3112 3109 3110 3109 3107 3105 3103 3101 3100 3100 3100 3099 3098 3097 3096 3095 3094 3093 3092 3091 3090 3090 3089 3089 3088 3088 3087
3134 3135 3135 3136 3137 3137 3137 3137 3136 3136 3136 3136 3136 3136 3136 3136 3136 3136 3136 3136 3136 3136 3136 3135 3134 3134 3133 3132 3131 3131 3130 3128 3127 3126 3124 3123 3121 3119 3118 3116 3116 3116 3114 3110 3108 3109 3111 3109 3105 3105 3105 3104 3101 3099 3098 3096 3094 3093 3093 3092 3091 3090 3089 3088 3087 3085 3085 3084 3083 3083 3082 3082 3081 3081
3130 3130 3131 3131 3131 3132 3133 3132 3132 3132 3132 3132 3132 3132 3133 3133 3134 3134 3134 3133 3133 3133 3133 3132 3132 3131 3131 3129 3129 3128 3127 3125 3124 3122 3121 3120 3118 3116 3115 3113 3112 3111 3110 3107 3103 3102 3104 3103 3101 3100 3099 3099 3097 3095 3093 3092 3090 3088 3087 3086 3085 3084 3083 3082 3080 3079 3078 3077 3076 3076 3075 3075 3075 3075
3126 3126 3126 3126 3126 3127 3128 3128 3127 3127 3127 3127 3128 3129 3130 3130 3131 3131 3131 3131 3130 3130 3130 3129 3128 3128 3128 3126 3125 3125 3124 3122 3121 3119 3118 3117 3115 3113 3111 3110 3108 3107 3106 3103 3099 3097 3097 3097 3096 3094 3093 3092 3092 3090 3089 3087 3085 3083 3082 3081 3080 3079 3078 3076 3075 3073 3072 3071 3070 3069 3069 3069 3068 3068
3123 3122 3121 3121 3122 3122 3124 3124 3123 3123 3124 3124 3124 3126 3127 3127 3128 3128 3128 3128 3127 3127 3126 3126 3125 3125 3124 3123 3122 3121 3120 3119 3118 3116 3114 3113 3111 3109 3107 3106 3104 3102 3101 3098 3094 3091 3090 3090 3089 3088 3087 3086 3085 3085 3084 3082 3080 3078 3077 3076 3075 3074 3072 3071 3069 3068 3067 3066 3065 3064 3063 3063 3062 3062
3118 3118 3117 3118 3118 3117 3119 3120 3119 3119 3121 3121 3121 3122 3123 3124 3125 3125 3125 3125 3124 3124 3123 3122 3122 3121 3120 3119 3118 3117 3116 3115 3114 3112 3110 3109 3107 3104 3102 3101 3099 3097 3095 3093 3090 3086 3084 3084 3083 3082 3081 3080 3079 3079 3079 3077 3075 3074 3072 3071 3070 3069 3067 3065 3064 3063 3062 3061 3060 3059 3058 3057 3057 3056
3113 3112 3113 3114 3113 3113 3115 3115 3115 3115 3117 3117 3118 3119 3120 3121 3121 3122 3122 3122 3121 3121 3120 3119 3118 3117 3116 3115 3114 3113 3112 3111 3109 3108 3106 3105 3102 3100 3097 3095 3094 3092 3090 3088 3085 3082 3080 3079 3077 3076 3076 3075 3074 3074 3073 3072 3070 3069 3067 3066 3065 3063 3062 3060 3058 3057 3056 3055 3054 3053 3052 3051 3051 3050
3107 3107 3107 3108 3109 3110 3111 3111 3111 3111 3113 3114 3115 3116 3117 3118 3118 3118 3118 3118 3117 3117 3116 3115 3114 3113 3112 3112 3111 3110 3108 3106 3105 3103 3101 3100 3098 3096 3093 3091 3089 3087 3086 3083 3081 3078 3076 3074 3072 3070 3070 3070 3070 3069 3068 3066 3065 3064 3062 3060 3058 3057 3056 3054 3053 3051 3050 3049 3048 3047 3046 3045 3044 3044
3102 3102 3102 3102 3104 3106 3106 3106 3107 3108 3109 3110 3112 3113 3114 3114 3115 3115 3115 3114 3113 3113 3112 3111 3110 3109 3109 3108 3107 3106 3104 3102 3101 3099 3097 3096 3094 3092 3089 3087 3084 3082 3081 3079 3077 3074 3072 3070 3069 3067 3064 3063 3064 3065 3063 3061 3060 3058 3056 3054 3052 3051 3049 3047 3046 3045 3043 3042 3041 3040 3038 3037 3037 3036
3097 3098 3097 3097 3099 3100 3101 3101 3103 3105 3106 3107 3108 3109 3109 3109 3110 3111 3111 3110 3109 3109 3108 3107 3106 3105 3105 3104 3103 3102 3100 3098 3097 3095 3092 3090 3088 3086 3083 3081 3079 3077 3075 3074 3071 3068 3067 3065 3064 3063 3060 3057 3056 3057 3057 3055 3054 3052 3049 3048 3046 3045 3043 3042 3040 3038 3037 3035 3034 3033 3031 3030 3030 3029
3092 3093 3093 3092 3092 3094 3096 3097 3098 3100 3102 3104 3105 3105 3105 3104 3104 3105 3105 3106 3105 3104 3104 3103 3102 3102 3101 3100 3098 3096 3094 3092 3091 3089 3086 3084 3082 3080 3077 3075 3073 3071 3070 3069 3066 3064 3062 3060 3059 3058 3056 3053 3050 3050 3050 3049 3048 3045 3043 3042 3040 3039 3038 3037 3036 3034 3032 3030 3028 3027 3025 3024 3024 3023
3087 3088 3088 3087 3087 3089 3091 3092 3094 3096 3098 3100 3101 3101 3101 3101 3101 3101 3101 3102 3102 3101 3100 3099 3099 3098 3097 3095 3093 3091 3089 3087 3086 3083 3081 3079 3077 3075 3072 3070 3068 3066 3065 3064 3063 3060 3058 3056 3055 3052 3050 3048 3046 3044 3043 3043 3042 3040 3038 3037 3036 3035 3034 3032 3031 3030 3028 3026 3024 3023 3021 3019 3018 3017
3083 3082 3082 3083 3085 3086 3087 3089 3091 3093 3095 3096 3097 3097 3098 3098 3098 3098 3098 3098 3097 3097 3096 3095 3095 3094 3093 3092 3090 3087 3085 3083 3081 3079 3077 3075 3074 3072 3070 3068 3065 3063 3061 3059 3058 3056 3053 3051 3049 3047 3045 3043 3041 3039 3038 3037 3037 3036 3035 3034 3033 3031 3030 3028 3027 3025 3023 3022 3020 3019 3017 3015 3014 3012
3079 3078 3078 3081 3083 3085 3086 3086 3087 3089 3091 3093 3094 3094 3095 3095 3095 3095 3095 3094 3094 3093 3093 3092 3091 3090 3089 3087 3085 3083 3081 3080 3077 3075 3073 3072 3071 3069 3067 3065 3063 3060 3058 3055 3053 3051 3049 3046 3044 3042 3040 3038 3037 3035 3034 3034 3033 3032 3031 3030 3030 3028 3026 3024 3022 3021 3019 3017 3015 3013 3012 3011 3009 3008
3077 3076 3076 3078 3080 3083 3085 3085 3085 3086 3087 3089 3090 3091 3092 3092 3092 3092 3092 3091 3090 3090 3089 3089 3088 3086 3084 3082 3080 3078 3077 3075 3073 3071 3069 3067 3066 3064 3062 3060 3058 3056 3054 3052 3049 3047 3044 3042 3040 3038 3037 3035 3033 3032 3031 3031 3031 3029 3027 3025 3025 3024 3023 3020 3018 3016 3014 3012 3011 3009 3007 3005 3004 3003
3074 3074 3074 3075 3077 3080 3083 3083 3083 3084 3085 3086 3087 3088 3089 3089 3089 3088 3088 3088 3087 3086 3086 3085 3083 3081 3080 3078 3076 3073 3072 3070 3069 3067 3065 3064 3062 3060 3058 3056 3054 3053 3050 3048 3045 3043 3040 3038 3036 3035 3034 3033 3031 3030 3028 3027 3027 3026 3024 3021 3020 3019 3018 3017 3015 3012 3010 3007 3006 3004 3002 3000 2999 2998
3070 3070 3070 3071 3074 3077 3079 3080 3080 3081 3082 3083 3084 3084 3084 3085 3085 3085 3084 3084 3084 3083 3082 3080 3079 3077 3075 3073 3071 3069 3068 3067 3066 3064 3062 3060 3058 3056 3054 3052 3050 3048 3046 3044 3041 3038 3036 3034 3033 3032 3031 3030 3029 3028 3026 3025 3023 3022 3021 3019 3016 3015 3014 3012 3011 3009 3006 3003 3002 3000 2998 2997 2995 2994
3065 3066 3067 3069 3071 3074 3075 3076 3077 3078 3078 3079 3079 3080 3080 3081 3081 3081 3081 3080 3080 3079 3078 3076 3074 3072 3071 3069 3067 3066 3065 3064 3063 3061 3059 3057 3055 3052 3050 3047 3045 3043 3041 3040 3037 3035 3033 3031 3030 3029 3028 3027 3026 3025 3024 3022 3020 3018 3017 3016 3014 3012 3010 3008 3006 3005 3002 3000 2998 2996 2995 2993 2992 2991
3060 3061 3063 3066 3068 3070 3071 3072 3073 3074 3074 3075 3075 3076 3077 3077 3078 3078 3077 3076 3076 3074 3073 3071 3069 3068 3066 3066 3065 3064 3063 3061 3059 3058 3055 3053 3051 3048 3046 3043 3041 3038 3036 3035 3033 3031 3030 3029 3028 3027 3026 3025 3024 3022 3020 3019 3018 3016 3014 3012 3010 3008 3007 3005 3002 3001 2999 2996 2994 2993 2992 2990 2988 2988
3055 3057 3059 3062 3064 3066 3067 3068 3069 3070 3071 3072 3073 3073 3073 3073 3073 3073 3073 3072 3071 3069 3067 3066 3064 3064 3064 3063 3062 3061 3060 3058 3057 3054 3052 3050 3048 3045 3043 3040 3037 3035 3032 3031 3029 3028 3027 3026 3025 3025 3024 3023 3022 3020 3017 3016 3015 3013 3011 3008 3006 3004 3003 3002 2999 2998 2996 2993 2990 2989 2988 2987 2986 2985
3050 3053 3056 3058 3060 3062 3064 3065 3066 3067 3068 3069 3070 3071 3070 3070 3070 3069 3068 3067 3066 3064 3063 3062 3062 3062 3061 3060 3059 3058 3057 3056 3054 3052 3050 3047 3045 3042 3039 3036 3034 3032 3029 3028 3026 3025 3024 3023 3022 3022 3021 3021 3021 3020 3017 3014 3011 3010 3007 3005 3004 3002 3000 2998 2996 2995 2993 2990 2988 2986 2985 2985 2984 2983
3046 3049 3052 3055 3057 3059 3060 3061 3063 3064 3065 3066 3066 3067 3067 3067 3067 3067 3065 3063 3062 3061 3060 3060 3059 3059 3058 3058 3057 3056 3055 3053 3051 3049 3047 3044 3041 3038 3036 3033 3030 3028 3026 3025 3024 3022 3021 3020 3019 3018 3018 3018 3018 3018 3016 3013 3009 3006 3004 3003 3002 3000 2998 2996 2994 2992 2990 2988 2986 2985 2984 2983 2983 2982
3042 3046 3049 3051 3054 3056 3057 3058 3060 3061 3061 3062 3062 3062 3063 3063 3063 3063 3061 3060 3059 3058 3058 3057 3057 3056 3056 3055 3055 3053 3052 3050 3048 3046 3043 3041 3038 3035 3033 3030 3028 3026 3024 3022 3021 3020 3019 3018 3016 3015 3015 3014 3014 3014 3014 3011 3008 3005 3002 3000 3000 2998 2995 2993 2992 2990 2988 2986 2984 2983 2983 2982 2982 2981
3039 3043 3045 3048 3051 3052 3053 3055 3057 3058 3058 3058 3059 3059 3059 3058 3058 3058 3057 3057 3056 3056 3055 3055 3054 3054 3054 3053 3052 3051 3049 3047 3045 3043 3041 3038 3036 3033 3030 3028 3026 3024 3022 3020 3019 3018 3016 3015 3014 3012 3012 3011 3011 3010 3010 3009 3007 3005 3001 2999 2997 2996 2993 2990 2989 2987 2986 2984 2983 2982 2982 2981 2981 2980
3037 3040 3042 3045 3047 3049 3050 3052 3054 3054 3054 3055 3056 3056 3056 3055 3055 3054 3054 3054 3054 3053 3053 3052 3052 3052 3052 3051 3049 3048 3046 3044 3043 3041 3038 3036 3033 3031 3028 3026 3024 3022 3020 3019 3017 3016 3014 3013 3012 3010 3010 3009 3008 3007 3006 3006 3005 3003 3001 2997 2995 2993 2990 2988 2986 2985 2984 2982 2982 2982 2981 2980 2980 2979
3034 3037 3039 3042 3043 3045 3048 3050 3051 3051 3051 3052 3052 3053 3053 3053 3052 3052 3051 3051 3051 3050 3050 3051 3051 3050 3049 3048 3046 3045 3044 3042 3041 3039 3037 3034 3032 3029 3026 3024 3022 3020 3018 3017 3016 3014 3012 3011 3010 3009 3008 3007 3006 3005 3004 3003 3002 3001 2999 2996 2993 2991 2989 2987 2985 2984 2982 2981 2981 2981 2980 2979 2979 2978
3030 3033 3036 3038 3040 3043 3045 3046 3047 3047 3048 3048 3049 3050 3050 3050 3050 3049 3049 3049 3049 3049 3049 3049 3048 3047 3046 3045 3044 3043 3042 3041 3039 3037 3035 3033 3030 3027 3025 3022 3020 3018 3016 3015 3013 3012 3010 3009 3008 3007 3006 3006 3005 3004 3003 3002 3001 2999 2997 2995 2993 2990 2988 2986 2984 2983 2982 2980 2980 2979 2979 2978 2978 2977
3028 3030 3033 3034 3037 3040 3041 3042 3043 3044 3045 3046 3047 3047 3047 3047 3047 3047 3046 3046 3047 3047 3046 3046 3045 3045 3044 3043 3042 3041 3040 3039 3037 3035 3033 3031 3029 3026 3024 3021 3018 3016 3014 3013 3011 3010 3008 3007 3006 3006 3005 3004 3003 3003 3002 3001 3000 2998 2996 2994 2992 2990 2987 2986 2984 2983 2981 2980 2979 2979 2978 2978 2977 2976
3026 3028 3029 3031 3034 3037 3039 3039 3040 3041 3042 3043 3044 3045 3044 3044 3044 3044 3044 3044 3045 3045 3044 3044 3043 3042 3042 3041 3041 3040 3039 3037 3036 3034 3032 3030 3028 3025 3022 3020 3017 3015 3013 3011 3009 3008 3007 3006 3005 3004 3004 3003 3002 3001 3000 2999 2998 2996 2995 2993 2991 2989 2987 2985 2984 2983 2981 2980 2979 2978 2978 2977 2976 2976
3023 3025 3027 3029 3031 3034 3035 3036 3036 3038 3040 3041 3041 3042 3041 3041 3042 3042 3042 3043 3043 3042 3041 3041 3041 3040 3040 3040 3039 3038 3037 3036 3034 3033 3031 3029 3027 3024 3021 3019 3016 3013 3011 3009 3007 3006 3005 3004 3003 3003 3002 3001 3000 3000 2999 2998 2997 2995 2994 2992 2990 2988 2987 2985 2984 2983 2981 2980 2979 2978 2977 2977 2976 2975
3021 3023 3025 3027 3030 3032 3033 3033 3034 3036 3038 3038 3038 3039 3039 3039 3039 3040 3040 3041 3040 3039 3039 3038 3039 3039 3039 3038 3038 3037 3036 3035 3033 3032 3030 3028 3026 3023 3020 3017 3015 3013 3010 3008 3006 3004 3003 3002 3002 3001 3000 2999 2999 2998 2997 2996 2995 2994 2993 2991 2990 2988 2986 2985 2984 2983 2981 2980 2979 2978 2978 2977 2976 2975